Weather History for KSSF - October, 2010

Change the Weather History Date:

Tuesday, October 5, 2010

  Actual Average Record
Temperature  
Mean Temperature 66 °F -  
Max Temperature 80 °F 81 °F 95 °F (2000)
Min Temperature 53 °F 62 °F 53 °F (2010)
Cooling Degree Days 1    
Growing Degree Days 16 (Base 50)    
Moisture  
Dew Point 48 °F    
Average Humidity 57    
Maximum Humidity 83    
Minimum Humidity 32    
Precipitation  
Precipitation 0.00 in - - ()
Sea Level Pressure  
Sea Level Pressure 30.26 in    
Wind  
Wind Speed 2 mph (ESE)    
Max Wind Speed 9 mph    
Max Gust Speed -    
Visibility 10 miles    
Events      
Averages and records for this station are not official NWS values.
T = Trace of Precipitation, MM = Missing Value Source: NWS Daily Summary

Daily Weather History Graph

Daily Weather History Graph

Search for Another Location

Airport or City:

Trip Planner

Search our weather history database for the weather conditions in past years. The results will help you decide how hot, cold, wet, or windy it might be!

Date:

Astronomy

Oct. 05, 2010 Rise Set
Actual Time 7:29 AM CDT 7:14 PM CDT
Civil Twilight 7:05 AM CDT 7:38 PM CDT
Nautical Twilight 6:38 AM CDT 8:06 PM CDT
Astronomical Twilight 6:10 AM CDT 8:33 PM CDT
Moon 5:03 AM CDT (10/5) 5:40 PM CDT (10/5)
Length of Visible Light 12h 32m
Length of Day
11h 45m
Waning Crescent, 6% of the Moon is Illuminated
Oct 5
Waning Crescent
Oct 7
New
Oct 14
First Quarter
Oct 22
Full
Oct 30
Last Quarter

Hourly Weather History & Observations

Time (CDT) Temp. Dew Point Humidity Pressure Visibility Wind Dir Wind Speed Gust Speed Precip Events Conditions
12:53 AM 55.9 °F 48.0 °F 75% 30.24 in 10.0 mi Calm Calm - N/A   Clear
1:53 AM 55.0 °F 48.0 °F 77% 30.24 in 10.0 mi Calm Calm - N/A   Clear
2:53 AM 55.0 °F 48.0 °F 77% 30.23 in 10.0 mi Calm Calm - N/A   Clear
3:53 AM 55.9 °F 46.9 °F 72% 30.23 in 10.0 mi Calm Calm - N/A   Clear
4:53 AM 55.0 °F 46.0 °F 72% 30.23 in 10.0 mi Calm Calm - N/A   Clear
5:53 AM 55.0 °F 46.9 °F 74% 30.24 in 10.0 mi Calm Calm - N/A   Clear
6:53 AM 54.0 °F 46.9 °F 77% 30.25 in 10.0 mi Calm Calm - N/A   Clear
7:53 AM 53.1 °F 48.0 °F 83% 30.27 in 10.0 mi Calm Calm - N/A   Clear
8:53 AM 62.1 °F 48.0 °F 60% 30.30 in 10.0 mi NNE 4.6 mph - N/A   Clear
9:53 AM 66.9 °F 46.0 °F 47% 30.31 in 10.0 mi East 4.6 mph - N/A   Clear
10:53 AM 71.1 °F 45.0 °F 39% 30.32 in 10.0 mi East 9.2 mph - N/A   Clear
11:53 AM 73.0 °F 46.9 °F 39% 30.32 in 10.0 mi SE 6.9 mph - N/A   Clear
12:53 PM 75.9 °F 46.0 °F 35% 30.30 in 10.0 mi East 5.8 mph - N/A   Clear
1:53 PM 77.0 °F 46.0 °F 33% 30.28 in 10.0 mi SSE 6.9 mph - N/A   Clear
2:53 PM 78.1 °F 46.0 °F 32% 30.24 in 10.0 mi Variable 3.5 mph - N/A   Clear
3:53 PM 79.0 °F 46.9 °F 32% 30.22 in 10.0 mi SE 5.8 mph - N/A   Clear
4:53 PM 79.0 °F 46.9 °F 32% 30.21 in 10.0 mi ESE 5.8 mph - N/A   Clear
5:53 PM 79.0 °F 46.9 °F 32% 30.21 in 10.0 mi ESE 8.1 mph - N/A   Clear
6:53 PM 75.9 °F 48.0 °F 37% 30.22 in 10.0 mi ESE 5.8 mph - N/A   Clear
7:53 PM 71.1 °F 52.0 °F 51% 30.24 in 10.0 mi East 3.5 mph - N/A   Clear
8:53 PM 66.0 °F 53.1 °F 63% 30.25 in 10.0 mi Calm Calm - N/A   Clear
9:53 PM 64.0 °F 53.1 °F 67% 30.26 in 10.0 mi Calm Calm - N/A   Clear
10:53 PM 62.1 °F 53.1 °F 72% 30.27 in 10.0 mi Calm Calm - N/A   Clear
11:53 PM 60.1 °F 53.1 °F 78% 30.28 in 10.0 mi Calm Calm - N/A   Clear